Wind_Speed
25 27 25 27 29 30 28 26 29 27 16 23 25 37 34 38 38 37 38 37 37 36 35 37 43 46 44
24 25 27 27 28 26 23 24 27 29 26 22 12 20 24 25 27 27 28 31 32 33 33 36 36 45 48
20 23 23 25 29 24 27 26 28 27 21 19 17 13 6 13 20 28 29 31 33 33 32 33 35 38 50
16 19 20 23 20 22 26 27 30 17 17 19 18 17 15 12 7 13 20 29 34 36 37 40 42 44 45
14 15 14 19 18 20 20 23 26 12 24 30 31 27 20 18 15 11 8 14 24 28 34 37 41 46 47
14 13 15 18 18 18 18 18 7 11 29 27 25 23 26 22 19 19 16 17 16 19 25 33 37 41 44
20 20 20 21 23 20 18 16 16 28 24 21 22 22 20 20 21 20 19 21 22 20 23 27 35 41 41
21 23 25 26 25 23 17 23 20 21 19 9 23 26 23 22 20 19 20 22 23 23 23 24 30 36 38
20 21 22 22 22 22 21 14 10 18 21 8 10 18 22 17 12 10 11 19 23 23 23 25 22 31 36
25 25 24 25 22 20 19 15 11 7 3 15 19 14 8 12 17 25 24 18 18 19 19 15 21 30 36
26 26 25 23 23 22 21 20 18 13 23 18 12 17 8 14 22 29 24 23 22 19 16 14 21 35 35
24 21 21 24 25 26 22 18 19 20 22 20 16 21 17 16 12 21 28 27 20 19 16 16 21 25 33
18 19 24 26 26 23 21 18 17 20 20 24 23 25 23 17 19 20 21 16 26 24 19 17 21 23 19
20 22 25 24 20 21 23 22 19 23 22 21 22 20 20 20 20 24 18 12 19 25 18 17 18 24 26
21 19 18 17 17 19 21 20 15 16 20 26 26 25 23 23 19 22 20 21 23 24 21 19 17 22 26
17 18 19 20 18 17 20 20 17 16 19 26 26 21 18 19 22 22 22 19 22 22 21 18 15 20 25
24 22 19 18 20 18 18 18 16 19 22 22 19 13 6 8 11 18 21 17 19 23 21 19 17 17 21
Wind_Direction
319 323 330 332 335 339 351 340 343 350 348 282 270 251 250 241 231 231 236 236 232 234 238 238 230 225 223
321 325 330 337 336 342 343 346 339 338 346 343 305 269 237 218 221 226 226 229 230 230 235 237 235 227 220
316 324 325 338 338 341 344 343 341 341 345 351 360 353 310 254 249 246 241 235 233 233 235 236 236 236 233
321 321 330 337 343 347 345 349 341 346 342 345 348 346 358 354 299 252 244 241 244 244 243 242 241 240 236
316 316 324 337 345 337 334 334 333 326 338 336 332 328 330 330 336 332 312 277 252 244 242 242 241 239 236
307 308 310 318 324 326 330 336 333 321 330 321 330 320 316 312 315 315 317 308 293 266 253 248 244 241 237
307 304 305 312 317 313 319 316 307 309 319 312 322 320 320 312 298 295 305 305 304 288 267 262 248 242 240
303 302 304 306 306 304 308 310 313 314 326 298 309 310 328 313 300 289 284 299 306 304 278 273 253 242 235
305 303 303 306 307 306 302 311 308 310 318 287 344 339 328 321 1 1 320 295 297 301 298 284 263 234 220
313 311 310 311 305 297 289 282 288 310 276 352 336 3 323 307 317 327 329 336 325 304 298 274 236 185 169
312 315 315 317 319 314 301 275 279 269 289 300 308 312 285 296 307 306 318 312 321 317 305 285 218 190 175
311 311 312 314 316 316 306 278 280 287 299 296 286 285 284 284 288 297 308 312 310 310 298 271 240 228 205
297 297 303 311 311 305 313 288 284 292 295 295 293 287 277 263 276 286 303 301 297 292 300 253 219 213 197
296 299 308 308 303 304 303 303 294 298 303 301 300 292 273 258 260 273 269 268 285 301 302 286 235 225 223
303 302 303 303 300 299 300 297 280 287 297 309 304 296 286 268 258 258 262 264 269 273 280 274 261 231 231
295 297 295 297 295 297 298 292 279 281 291 304 308 310 302 282 255 255 261 257 265 264 263 260 252 246 232
293 293 293 287 289 290 292 289 280 279 292 303 300 279 281 280 279 249 246 253 247 252 250 247 249 248 240
Height
728 723 718 713 708 700 696 695 684 682 675 676 673 671 676 680 684 688 695 699 702 707 711 715 719 722 727
728 722 716 711 707 701 695 693 687 685 676 672 667 669 668 672 675 681 686 690 694 698 702 707 710 714 717
729 724 718 712 706 701 697 691 688 684 680 673 669 666 665 667 668 675 679 682 686 690 694 698 703 707 710
730 724 719 713 709 704 697 693 689 685 682 678 671 669 666 665 666 667 670 674 678 682 685 688 693 697 702
729 725 720 715 712 708 704 698 692 688 684 679 675 671 668 667 664 664 666 668 670 671 675 678 681 685 689
728 725 720 717 712 709 705 700 694 689 685 677 675 671 667 663 664 663 663 664 663 664 666 668 670 672 675
726 723 718 715 711 707 704 702 697 689 686 676 674 670 666 663 662 661 659 659 659 656 657 658 659 662 666
723 719 716 712 709 705 701 697 694 691 687 679 672 667 663 659 658 658 657 655 652 650 649 648 648 651 656
719 715 712 709 706 701 698 695 690 686 683 679 674 668 662 655 655 654 653 651 650 648 644 641 640 643 648
712 710 707 703 701 698 696 693 690 685 681 680 677 675 668 658 654 653 652 650 648 646 644 641 638 641 643
707 703 700 697 695 693 691 690 687 685 682 681 678 676 676 667 657 654 654 650 648 644 642 641 644 641 643
703 699 696 693 691 688 685 684 683 681 679 677 675 674 671 667 662 654 651 650 649 645 643 643 643 645 645
700 696 693 690 686 683 680 678 677 676 674 672 670 668 666 663 658 655 653 647 647 645 643 641 641 643 646
697 693 689 685 682 679 676 674 672 669 669 667 665 662 659 657 655 649 650 650 643 642 642 640 641 641 644
693 689 685 681 678 675 673 670 668 665 662 659 657 655 652 650 648 645 643 643 642 642 642 640 639 639 642
688 685 682 679 674 671 668 666 663 660 658 655 651 648 644 641 641 638 637 638 637 636 635 635 635 637 640
683 679 677 674 670 667 663 660 657 655 653 651 649 647 643 638 634 633 631 631 632 630 630 630 632 633 636